User: anonymous   Login
Location: Newark
(48.8519°N, 2.3472°E)
Time: 01:59:22
(UTC+00:00)
Language:

JY1SAT - Orbit

View from above orbital plane
View from above orbital plane
View from above satellite
View from above satellite

Ground track
Ground track

The orbit data is extracted from the following two-line orbital elements,

1 43803U 18099AX  19291.82924929  .00000356  00000-0  37502-4 0  9997
2 43803  97.7322   2.2011 0013660 282.6198  77.3495 14.95336753 47673
Epoch (UTC): 18 October 2019 19:54:07
Eccentricity: 0.0013660
inclination: 97.7322°
perigee height: 572 km
apogee height: 591 km
right ascension of ascending node: 2.2011°
argument of perigee: 282.6198°
revolutions per day: 14.95336753
mean anomaly at epoch: 77.3495°
orbit number at epoch: 4767

The dashed part of the orbit path shows where the satellite is in the earth's shadow,  

DLR